APSTAR 6C

Last updated on June 26, 2019, 3:46 a.m. UTC

1 43450U 18041A   19176.87126328 -.00000312  00000-0  00000+0 0  9997
2 43450   0.0200 134.2970 0001611 288.9791 298.0878  1.00269371  4295
UTC
Height (km)
Latitude
Longitude
Inclination
Orbital Period
UTC large
Height (km)
Speed (km/s)
/
Latitude / Longitude
Inclination (degrees)
Orbital Period (minutes)
Azimuth
Elevation
Range (km)
Doppler Factor
iOS Compass Heading
iOS Angle

Next 30 passes for location: Hong Kong

Rise time Rise Azimuth (degrees) Set time Set Azimuth (degrees) Duration Max altitude (degrees)

No matching passes for this satellites